Torna al catalogo

THORAD AGENA D DEB

AttivoPO
NORAD 4855·DEBRIS·🇺🇸 United States

Lanciato Apr 8, 1970 da Vandenberg Space Force Base

Loading…

Prossimi Passaggi

TLE

Source: Space-Track
1 04855U 70025EK  26229.44971309  .00000367  00000-0  43559-3 0  9999
2 04855  99.9539 185.2662 0013949 264.3534 218.3434 13.74877090805397

Traccia THORAD AGENA D DEB in tempo reale con AllMySat

Download on the App Store